TimeCST,TemperatureF,Dew PointF,Humidity,Sea Level PressureIn,VisibilityMPH,Wind Direction,Wind SpeedMPH,Gust SpeedMPH,PrecipitationIn,Events,Conditions,WindDirDegrees,DateUTC
12:43 AM,33.8,32.0,93,29.93,5.0,ESE,8.1,-,N/A,,Mostly Cloudy,110,2012-12-09 06:43:00
12:53 AM,32.0,30.9,96,29.96,5.0,East,9.2,-,N/A,,Overcast,100,2012-12-09 06:53:00
1:53 AM,33.1,32.0,96,29.93,6.0,East,8.1,-,N/A,,Overcast,100,2012-12-09 07:53:00
2:18 AM,33.8,32.0,93,29.92,6.0,East,3.5,-,N/A,,Overcast,80,2012-12-09 08:18:00
2:53 AM,33.1,32.0,96,29.94,6.0,East,4.6,-,N/A,,Overcast,80,2012-12-09 08:53:00
3:46 AM,33.8,32.0,93,29.91,5.0,NE,3.5,-,N/A,,Overcast,50,2012-12-09 09:46:00
3:53 AM,33.1,32.0,96,29.93,5.0,NE,4.6,-,N/A,,Overcast,40,2012-12-09 09:53:00
4:53 AM,33.1,32.0,96,29.93,3.0,ENE,5.8,-,0.01,Snow,Light Snow,60,2012-12-09 10:53:00
5:00 AM,33.8,32.0,93,29.90,2.0,ENE,5.8,-,0.00,Snow,Light Snow,70,2012-12-09 11:00:00
5:07 AM,33.8,32.0,93,29.90,1.2,ENE,6.9,-,0.01,Snow,Light Snow,70,2012-12-09 11:07:00
5:22 AM,33.8,32.0,93,29.89,0.8,East,8.1,-,0.03,Snow,Light Snow,80,2012-12-09 11:22:00
5:31 AM,33.8,32.0,93,29.89,0.8,East,9.2,-,0.04,Snow,Light Snow,80,2012-12-09 11:31:00
5:38 AM,33.8,32.0,93,29.89,1.2,East,8.1,-,0.04,Snow,Light Snow,80,2012-12-09 11:38:00
5:53 AM,33.1,32.0,96,29.92,1.5,East,8.1,-,0.04,Snow,Light Snow,80,2012-12-09 11:53:00
6:04 AM,33.8,32.0,93,29.89,2.5,East,9.2,-,0.00,Snow,Light Snow,80,2012-12-09 12:04:00
6:32 AM,33.8,32.0,93,29.88,1.8,East,10.4,-,0.01,Snow,Light Snow,80,2012-12-09 12:32:00
6:53 AM,33.1,32.0,96,29.90,1.5,ENE,8.1,-,0.01,Snow,Light Snow,70,2012-12-09 12:53:00
7:18 AM,33.8,32.0,93,29.88,2.0,East,8.1,-,0.00,Snow,Light Snow,80,2012-12-09 13:18:00
7:53 AM,33.1,32.0,96,29.90,2.0,East,6.9,-,0.01,Snow,Light Snow,80,2012-12-09 13:53:00
8:03 AM,33.8,32.0,93,29.88,1.2,East,5.8,-,0.00,Snow,Light Snow,80,2012-12-09 14:03:00
8:15 AM,33.8,33.8,100,29.88,0.8,East,6.9,-,0.01,Snow,Light Snow,80,2012-12-09 14:15:00
8:53 AM,33.1,33.1,100,29.89,0.8,East,9.2,-,0.03,Snow,Light Snow,100,2012-12-09 14:53:00
9:01 AM,33.8,33.8,100,29.86,1.0,ESE,9.2,-,0.01,Snow,Light Snow,110,2012-12-09 15:01:00
9:34 AM,33.8,32.0,93,29.85,2.5,SE,11.5,-,0.01,Rain,Light Rain,130,2012-12-09 15:34:00
9:53 AM,33.1,33.1,100,29.88,2.5,SE,10.4,-,0.01,,Overcast,130,2012-12-09 15:53:00
10:09 AM,33.8,33.8,100,29.85,3.0,SE,6.9,-,N/A,,Overcast,130,2012-12-09 16:09:00
10:33 AM,33.8,33.8,100,29.83,2.5,East,5.8,-,0.00,,Overcast,100,2012-12-09 16:33:00
10:46 AM,33.8,33.8,100,29.84,3.0,SE,5.8,-,0.00,,Overcast,130,2012-12-09 16:46:00
10:53 AM,34.0,33.1,96,29.87,4.0,SE,6.9,-,0.00,,Overcast,130,2012-12-09 16:53:00
11:53 AM,35.1,34.0,96,29.85,5.0,South,4.6,-,N/A,,Overcast,180,2012-12-09 17:53:00
12:09 PM,35.6,33.8,93,29.81,6.0,SSE,3.5,-,N/A,,Overcast,160,2012-12-09 18:09:00
12:42 PM,35.6,33.8,93,29.80,2.0,WSW,3.5,-,0.01,Rain,Light Rain,250,2012-12-09 18:42:00
12:53 PM,35.1,35.1,100,29.83,2.0,West,3.5,-,0.01,Rain,Light Rain,260,2012-12-09 18:53:00
1:21 PM,35.6,35.6,100,29.79,2.5,Calm,Calm,-,0.01,Rain,Light Rain,0,2012-12-09 19:21:00
1:49 PM,35.6,35.6,100,29.78,4.0,SW,4.6,-,0.01,,Overcast,230,2012-12-09 19:49:00
1:53 PM,36.0,35.1,97,29.80,4.0,WSW,4.6,-,0.01,,Overcast,250,2012-12-09 19:53:00
2:19 PM,35.6,33.8,93,29.78,1.8,WSW,12.7,-,N/A,,Overcast,250,2012-12-09 20:19:00
2:32 PM,35.6,33.8,93,29.78,3.0,West,12.7,-,N/A,,Overcast,260,2012-12-09 20:32:00
2:53 PM,35.1,34.0,96,29.82,2.0,West,11.5,-,N/A,,Overcast,260,2012-12-09 20:53:00
3:10 PM,33.8,33.8,100,29.80,4.0,West,12.7,-,N/A,,Overcast,280,2012-12-09 21:10:00
3:24 PM,33.8,30.2,87,29.81,5.0,West,15.0,-,N/A,,Overcast,280,2012-12-09 21:24:00
3:48 PM,30.2,28.4,93,29.82,10.0,West,19.6,26.5,N/A,,Overcast,270,2012-12-09 21:48:00
3:53 PM,30.9,28.0,89,29.85,10.0,West,19.6,-,N/A,,Overcast,270,2012-12-09 21:53:00
4:16 PM,28.4,24.8,86,29.83,10.0,West,24.2,28.8,N/A,,Overcast,260,2012-12-09 22:16:00
4:53 PM,28.0,23.0,81,29.87,10.0,West,19.6,28.8,N/A,,Overcast,270,2012-12-09 22:53:00
5:53 PM,25.0,21.0,85,29.88,10.0,West,19.6,27.6,N/A,,Overcast,270,2012-12-09 23:53:00
6:21 PM,24.8,19.4,80,29.84,10.0,West,19.6,28.8,N/A,,Overcast,270,2012-12-10 00:21:00
6:53 PM,24.1,19.9,84,29.88,10.0,West,17.3,28.8,N/A,,Overcast,270,2012-12-10 00:53:00
7:53 PM,24.1,19.9,84,29.87,10.0,West,20.7,26.5,N/A,,Overcast,270,2012-12-10 01:53:00
8:53 PM,24.1,19.9,84,29.88,10.0,West,19.6,29.9,N/A,,Overcast,280,2012-12-10 02:53:00
9:53 PM,21.9,17.1,82,29.89,10.0,West,21.9,31.1,N/A,,Overcast,280,2012-12-10 03:53:00
10:53 PM,21.0,17.1,85,29.91,10.0,West,21.9,-,N/A,,Overcast,280,2012-12-10 04:53:00
11:53 PM,19.9,16.0,85,29.92,10.0,WNW,19.6,31.1,N/A,,Overcast,290,2012-12-10 05:53:00